Starlink 35633

operational
NORAD ID: 66162 Int'l Des: 2025-240 Owner: SPXS Country: US Constellation: starlink
LEOCIRCULAR

关于 Starlink 35633

正在加载描述...

实时位置

正在加载3D地球...

即将过境

高度历史

Altitude vs Time

uPlot chart will show altitude changes over time

两行轨道根数

1 66162C 25240T 25298.74215278 .00636270 00000+0 10322-2 0 2981
2 66162 53.1575 338.8176 0009129 267.6354 323.2100 16.01952091 15
Epoch: Oct 25, 2025 • Age: 156 hours

当前状态

高度 249.1 km
速度 7.76 km/s
星下点 29.03°N, 120.65°W
发射日期 Oct 25, 2025
运行时间 5 days
类型 internet

技术详情

分类 Payload
质量 575.00 kg
干质量 530.00 kg
总质量 575.00 kg
长度 0.30 m
直径 4.10 m
跨度 29.00 m
形状 Box + pan
制造商 SPXS
平台类型 Starlink V2MO
阶段状态 In Orbit
所有者/国家 SPXS/US

大型星座

Loading constellations...